Year,Month,Day,Hour,Minute,Value (Times are PST for temperature in C)
2012,09,15,00,00,13.20
2012,09,15,00,01,13.20
2012,09,15,00,02,13.10
2012,09,15,00,03,13.10
2012,09,15,00,04,13.00
2012,09,15,00,05,13.00
2012,09,15,00,06,13.00
2012,09,15,00,07,12.90
2012,09,15,00,08,12.90
2012,09,15,00,09,12.80
2012,09,15,00,10,12.80
2012,09,15,00,11,12.80
2012,09,15,00,12,12.80
2012,09,15,00,13,12.80
2012,09,15,00,14,12.70
2012,09,15,00,15,12.70
2012,09,15,00,16,12.70
2012,09,15,00,17,12.70
2012,09,15,00,18,12.70
2012,09,15,00,19,12.70
2012,09,15,00,20,12.80
2012,09,15,00,21,12.80
2012,09,15,00,22,12.70
2012,09,15,00,23,12.70
2012,09,15,00,24,12.70
2012,09,15,00,25,12.70
2012,09,15,00,26,12.70
2012,09,15,00,27,12.70
2012,09,15,00,28,12.60
2012,09,15,00,29,12.60
2012,09,15,00,30,12.60
2012,09,15,00,31,12.60
2012,09,15,00,32,12.60
2012,09,15,00,33,12.60
2012,09,15,00,34,12.50
2012,09,15,00,35,12.50
2012,09,15,00,36,12.50
2012,09,15,00,37,12.50
2012,09,15,00,38,12.50
2012,09,15,00,39,12.50
2012,09,15,00,40,12.40
2012,09,15,00,41,12.40
2012,09,15,00,42,12.40
2012,09,15,00,43,12.30
2012,09,15,00,44,12.30
2012,09,15,00,45,12.30
2012,09,15,00,46,12.30
2012,09,15,00,47,12.30
2012,09,15,00,48,12.30
2012,09,15,00,49,12.30
2012,09,15,00,50,12.30
2012,09,15,00,51,12.30
2012,09,15,00,52,12.20
2012,09,15,00,53,12.20
2012,09,15,00,54,12.20
2012,09,15,00,55,12.20
2012,09,15,00,56,12.20
2012,09,15,00,57,12.20
2012,09,15,00,58,12.20
2012,09,15,00,59,12.20
2012,09,15,01,00,12.20
2012,09,15,01,01,12.10
2012,09,15,01,02,12.10
2012,09,15,01,03,12.00
2012,09,15,01,04,12.00
2012,09,15,01,05,12.00
2012,09,15,01,06,11.90
2012,09,15,01,07,11.90
2012,09,15,01,08,11.90
2012,09,15,01,09,11.80
2012,09,15,01,10,11.90
2012,09,15,01,11,11.90
2012,09,15,01,12,11.80
2012,09,15,01,13,11.80
2012,09,15,01,14,11.80
2012,09,15,01,15,11.80
2012,09,15,01,16,11.80
2012,09,15,01,17,11.80
2012,09,15,01,18,11.80
2012,09,15,01,19,11.80
2012,09,15,01,20,11.80
2012,09,15,01,21,11.80
2012,09,15,01,22,11.80
2012,09,15,01,23,11.80
2012,09,15,01,24,11.80
2012,09,15,01,25,11.80
2012,09,15,01,26,11.80
2012,09,15,01,27,11.80
2012,09,15,01,28,11.80
2012,09,15,01,29,11.80
2012,09,15,01,30,11.80
2012,09,15,01,31,11.80
2012,09,15,01,32,11.80
2012,09,15,01,33,11.80
2012,09,15,01,34,11.80
2012,09,15,01,35,11.90
2012,09,15,01,36,11.90
2012,09,15,01,37,11.90
2012,09,15,01,38,11.90
2012,09,15,01,39,12.00
2012,09,15,01,40,12.00
2012,09,15,01,41,12.10
2012,09,15,01,42,12.10
2012,09,15,01,43,12.10
2012,09,15,01,44,12.10
2012,09,15,01,45,12.10
2012,09,15,01,46,12.10
2012,09,15,01,47,12.10
2012,09,15,01,48,12.10
2012,09,15,01,49,12.10
2012,09,15,01,50,12.10
2012,09,15,01,51,12.10
2012,09,15,01,52,12.10
2012,09,15,01,53,12.10
2012,09,15,01,54,12.10
2012,09,15,01,55,12.10
2012,09,15,01,56,12.10
2012,09,15,01,57,12.10
2012,09,15,01,58,12.20
2012,09,15,01,59,12.20
2012,09,15,02,00,12.20
2012,09,15,02,01,12.20
2012,09,15,02,02,12.20
2012,09,15,02,03,12.20
2012,09,15,02,04,12.20
2012,09,15,02,05,12.20
2012,09,15,02,06,12.20
2012,09,15,02,07,12.20
2012,09,15,02,08,12.20
2012,09,15,02,09,12.20
2012,09,15,02,10,12.20
2012,09,15,02,11,12.20
2012,09,15,02,12,12.20
2012,09,15,02,13,12.20
2012,09,15,02,14,12.20
2012,09,15,02,15,12.20
2012,09,15,02,16,12.20
2012,09,15,02,17,12.20
2012,09,15,02,18,12.20
2012,09,15,02,19,12.10
2012,09,15,02,20,12.10
2012,09,15,02,21,12.10
2012,09,15,02,22,12.10
2012,09,15,02,23,12.10
2012,09,15,02,24,12.20
2012,09,15,02,25,12.20
2012,09,15,02,26,12.20
2012,09,15,02,27,12.30
2012,09,15,02,28,12.30
2012,09,15,02,29,12.30
2012,09,15,02,30,12.30
2012,09,15,02,31,12.30
2012,09,15,02,32,12.30
2012,09,15,02,33,12.30
2012,09,15,02,34,12.30
2012,09,15,02,35,12.30
2012,09,15,02,36,12.30
2012,09,15,02,37,12.30
2012,09,15,02,38,12.30
2012,09,15,02,39,12.30
2012,09,15,02,40,12.30
2012,09,15,02,41,12.30
2012,09,15,02,42,12.30
2012,09,15,02,43,12.30
2012,09,15,02,44,12.30
2012,09,15,02,45,12.30
2012,09,15,02,46,12.30
2012,09,15,02,47,12.30
2012,09,15,02,48,12.30
2012,09,15,02,49,12.30
2012,09,15,02,50,12.30
2012,09,15,02,51,12.20
2012,09,15,02,52,12.20
2012,09,15,02,53,12.20
2012,09,15,02,54,12.10
2012,09,15,02,55,12.10
2012,09,15,02,56,12.10
2012,09,15,02,57,12.10
2012,09,15,02,58,12.10
2012,09,15,02,59,12.00
2012,09,15,03,00,12.00
2012,09,15,03,01,12.00
2012,09,15,03,02,11.90
2012,09,15,03,03,11.90
2012,09,15,03,04,11.90
2012,09,15,03,05,11.90
2012,09,15,03,06,11.80
2012,09,15,03,07,11.80
2012,09,15,03,08,11.80
2012,09,15,03,09,11.80
2012,09,15,03,10,11.80
2012,09,15,03,11,11.80
2012,09,15,03,12,11.70
2012,09,15,03,13,11.70
2012,09,15,03,14,11.70
2012,09,15,03,15,11.70
2012,09,15,03,16,11.60
2012,09,15,03,17,11.60
2012,09,15,03,18,11.60
2012,09,15,03,19,11.40
2012,09,15,03,20,11.40
2012,09,15,03,21,11.40
2012,09,15,03,22,11.30
2012,09,15,03,23,11.30
2012,09,15,03,24,11.30
2012,09,15,03,25,11.20
2012,09,15,03,26,11.20
2012,09,15,03,27,11.20
2012,09,15,03,28,11.20
2012,09,15,03,29,11.20
2012,09,15,03,30,11.20
2012,09,15,03,31,11.30
2012,09,15,03,32,11.30
2012,09,15,03,33,11.40
2012,09,15,03,34,11.40
2012,09,15,03,35,11.40
2012,09,15,03,36,11.40
2012,09,15,03,37,11.40
2012,09,15,03,38,11.50
2012,09,15,03,39,11.60
2012,09,15,03,40,11.60
2012,09,15,03,41,11.60
2012,09,15,03,42,11.60
2012,09,15,03,43,11.60
2012,09,15,03,44,11.50
2012,09,15,03,45,11.40
2012,09,15,03,46,11.40
2012,09,15,03,47,11.40
2012,09,15,03,48,11.30
2012,09,15,03,49,11.20
2012,09,15,03,50,11.20
2012,09,15,03,51,11.10
2012,09,15,03,52,11.00
2012,09,15,03,53,10.90
2012,09,15,03,54,10.90
2012,09,15,03,55,10.90
2012,09,15,03,56,10.80
2012,09,15,03,57,10.80
2012,09,15,03,58,10.70
2012,09,15,03,59,10.70
2012,09,15,04,00,10.70
2012,09,15,04,01,10.70
2012,09,15,04,02,10.70
2012,09,15,04,03,10.60
2012,09,15,04,04,10.60
2012,09,15,04,05,10.60
2012,09,15,04,06,10.60
2012,09,15,04,07,10.60
2012,09,15,04,08,10.60
2012,09,15,04,09,10.60
2012,09,15,04,10,10.60
2012,09,15,04,11,10.60
2012,09,15,04,12,10.70
2012,09,15,04,13,10.70
2012,09,15,04,14,10.70
2012,09,15,04,15,10.60
2012,09,15,04,16,10.60
2012,09,15,04,17,10.60
2012,09,15,04,18,10.60
2012,09,15,04,19,10.60
2012,09,15,04,20,10.60
2012,09,15,04,21,10.70
2012,09,15,04,22,10.70
2012,09,15,04,23,10.70
2012,09,15,04,24,10.70
2012,09,15,04,25,10.60
2012,09,15,04,26,10.60
2012,09,15,04,27,10.60
2012,09,15,04,28,10.60
2012,09,15,04,29,10.60
2012,09,15,04,30,10.60
2012,09,15,04,31,10.70
2012,09,15,04,32,10.70
2012,09,15,04,33,10.70
2012,09,15,04,34,10.70
2012,09,15,04,35,10.70
2012,09,15,04,36,10.70
2012,09,15,04,37,10.80
2012,09,15,04,38,10.80
2012,09,15,04,39,10.80
2012,09,15,04,40,10.90
2012,09,15,04,41,10.90
2012,09,15,04,42,10.90
2012,09,15,04,43,10.80
2012,09,15,04,44,10.80
2012,09,15,04,45,10.80
2012,09,15,04,46,10.70
2012,09,15,04,47,10.70
2012,09,15,04,48,10.60
2012,09,15,04,49,10.60
2012,09,15,04,50,10.60
2012,09,15,04,51,10.60
2012,09,15,04,52,10.50
2012,09,15,04,53,10.40
2012,09,15,04,54,10.40
2012,09,15,04,55,10.40
2012,09,15,04,56,10.40
2012,09,15,04,57,10.40
2012,09,15,04,58,10.40
2012,09,15,04,59,10.40
2012,09,15,05,00,10.40
2012,09,15,05,01,10.40
2012,09,15,05,02,10.40
2012,09,15,05,03,10.40
2012,09,15,05,04,10.40
2012,09,15,05,05,10.40
2012,09,15,05,06,10.40
2012,09,15,05,07,10.40
2012,09,15,05,08,10.40
2012,09,15,05,09,10.40
2012,09,15,05,10,10.40
2012,09,15,05,11,10.40
2012,09,15,05,12,10.40
2012,09,15,05,13,10.40
2012,09,15,05,14,10.40
2012,09,15,05,15,10.40
2012,09,15,05,16,10.40
2012,09,15,05,17,10.40
2012,09,15,05,18,10.40
2012,09,15,05,19,10.40
2012,09,15,05,20,10.40
2012,09,15,05,21,10.40
2012,09,15,05,22,10.40
2012,09,15,05,23,10.40
2012,09,15,05,24,10.40
2012,09,15,05,25,10.40
2012,09,15,05,26,10.40
2012,09,15,05,27,10.40
2012,09,15,05,28,10.40
2012,09,15,05,29,10.40
2012,09,15,05,30,10.40
2012,09,15,05,31,10.40
2012,09,15,05,32,10.40
2012,09,15,05,33,10.30
2012,09,15,05,34,10.30
2012,09,15,05,35,10.30
2012,09,15,05,36,10.30
2012,09,15,05,37,10.30
2012,09,15,05,38,10.30
2012,09,15,05,39,10.30
2012,09,15,05,40,10.30
2012,09,15,05,41,10.30
2012,09,15,05,42,10.30
2012,09,15,05,43,10.30
2012,09,15,05,44,10.30
2012,09,15,05,45,10.20
2012,09,15,05,46,10.20
2012,09,15,05,47,10.10
2012,09,15,05,48,10.10
2012,09,15,05,49,10.10
2012,09,15,05,50,10.10
2012,09,15,05,51,10.10
2012,09,15,05,52,10.10
2012,09,15,05,53,10.10
2012,09,15,05,54,10.00
2012,09,15,05,55,9.90
2012,09,15,05,56,9.90
2012,09,15,05,57,9.90
2012,09,15,05,58,9.90
2012,09,15,05,59,9.90
2012,09,15,06,00,9.90
2012,09,15,06,01,9.90
2012,09,15,06,02,9.90
2012,09,15,06,03,9.90
2012,09,15,06,04,9.90
2012,09,15,06,05,9.90
2012,09,15,06,06,9.90
2012,09,15,06,07,9.90
2012,09,15,06,08,9.90
2012,09,15,06,09,9.90
2012,09,15,06,10,9.90
2012,09,15,06,11,9.90
2012,09,15,06,12,9.90
2012,09,15,06,13,9.90
2012,09,15,06,14,9.90
2012,09,15,06,15,9.90
2012,09,15,06,16,9.90
2012,09,15,06,17,9.90
2012,09,15,06,18,9.80
2012,09,15,06,19,9.80
2012,09,15,06,20,9.80
2012,09,15,06,21,9.80
2012,09,15,06,22,9.80
2012,09,15,06,23,9.80
2012,09,15,06,24,9.80
2012,09,15,06,25,9.80
2012,09,15,06,26,9.90
2012,09,15,06,27,9.90
2012,09,15,06,28,9.90
2012,09,15,06,29,9.90
2012,09,15,06,30,9.80
2012,09,15,06,31,9.80
2012,09,15,06,32,9.70
2012,09,15,06,33,9.70
2012,09,15,06,34,9.70
2012,09,15,06,35,9.70
2012,09,15,06,36,9.70
2012,09,15,06,37,9.70
2012,09,15,06,38,9.70
2012,09,15,06,39,9.70
2012,09,15,06,40,9.70
2012,09,15,06,41,9.70
2012,09,15,06,42,9.70
2012,09,15,06,43,9.70
2012,09,15,06,44,9.70
2012,09,15,06,45,9.70
2012,09,15,06,46,9.70
2012,09,15,06,47,9.60
2012,09,15,06,48,9.60
2012,09,15,06,49,9.60
2012,09,15,06,50,9.70
2012,09,15,06,51,9.70
2012,09,15,06,52,9.70
2012,09,15,06,53,9.70
2012,09,15,06,54,9.70
2012,09,15,06,55,9.70
2012,09,15,06,56,9.70
2012,09,15,06,57,9.70
2012,09,15,06,58,9.70
2012,09,15,06,59,9.70
2012,09,15,07,00,9.70
2012,09,15,07,01,9.70
2012,09,15,07,02,9.70
2012,09,15,07,03,9.70
2012,09,15,07,04,9.70
2012,09,15,07,05,9.70
2012,09,15,07,06,9.70
2012,09,15,07,07,9.70
2012,09,15,07,08,9.70
2012,09,15,07,09,9.70
2012,09,15,07,10,9.70
2012,09,15,07,11,9.70
2012,09,15,07,12,9.70
2012,09,15,07,13,9.80
2012,09,15,07,14,9.80
2012,09,15,07,15,9.80
2012,09,15,07,16,9.80
2012,09,15,07,17,9.80
2012,09,15,07,18,9.80
2012,09,15,07,19,9.80
2012,09,15,07,20,9.80
2012,09,15,07,21,9.80
2012,09,15,07,22,9.80
2012,09,15,07,23,9.80
2012,09,15,07,24,9.80
2012,09,15,07,25,9.80
2012,09,15,07,26,9.90
2012,09,15,07,27,9.90
2012,09,15,07,28,9.90
2012,09,15,07,29,9.90
2012,09,15,07,30,10.00
2012,09,15,07,31,10.10
2012,09,15,07,32,10.10
2012,09,15,07,33,10.10
2012,09,15,07,34,10.10
2012,09,15,07,35,10.10
2012,09,15,07,36,10.10
2012,09,15,07,37,10.10
2012,09,15,07,38,10.10
2012,09,15,07,39,10.10
2012,09,15,07,40,10.10
2012,09,15,07,41,10.20
2012,09,15,07,42,10.20
2012,09,15,07,43,10.20
2012,09,15,07,44,10.20
2012,09,15,07,45,10.20
2012,09,15,07,46,10.20
2012,09,15,07,47,10.20
2012,09,15,07,48,10.30
2012,09,15,07,49,10.30
2012,09,15,07,50,10.40
2012,09,15,07,51,10.40
2012,09,15,07,52,10.40
2012,09,15,07,53,10.40
2012,09,15,07,54,10.40
2012,09,15,07,55,10.40
2012,09,15,07,56,10.40
2012,09,15,07,57,10.40
2012,09,15,07,58,10.40
2012,09,15,07,59,10.40
2012,09,15,08,00,10.40
2012,09,15,08,01,10.40
2012,09,15,08,02,10.40
2012,09,15,08,03,10.40
2012,09,15,08,04,10.40
2012,09,15,08,05,10.40
2012,09,15,08,06,10.40
2012,09,15,08,07,10.40
2012,09,15,08,08,10.40
2012,09,15,08,09,10.50
2012,09,15,08,10,10.60
2012,09,15,08,11,10.60
2012,09,15,08,12,10.60
2012,09,15,08,13,10.70
2012,09,15,08,14,10.70
2012,09,15,08,15,10.80
2012,09,15,08,16,10.80
2012,09,15,08,17,10.80
2012,09,15,08,18,10.90
2012,09,15,08,19,10.90
2012,09,15,08,20,10.90
2012,09,15,08,21,10.90
2012,09,15,08,22,10.90
2012,09,15,08,23,10.90
2012,09,15,08,24,11.00
2012,09,15,08,25,11.10
2012,09,15,08,26,11.10
2012,09,15,08,27,11.10
2012,09,15,08,28,11.10
2012,09,15,08,29,11.20
2012,09,15,08,30,11.20
2012,09,15,08,31,11.20
2012,09,15,08,32,11.20
2012,09,15,08,33,11.30
2012,09,15,08,34,11.40
2012,09,15,08,35,11.40
2012,09,15,08,36,11.40
2012,09,15,08,37,11.60
2012,09,15,08,38,11.60
2012,09,15,08,39,11.70
2012,09,15,08,40,11.70
2012,09,15,08,41,11.80
2012,09,15,08,42,11.80
2012,09,15,08,43,11.80
2012,09,15,08,44,11.90
2012,09,15,08,45,11.90
2012,09,15,08,46,12.00
2012,09,15,08,47,12.10
2012,09,15,08,48,12.10
2012,09,15,08,49,12.20
2012,09,15,08,50,12.30
2012,09,15,08,51,12.50
2012,09,15,08,52,12.60
2012,09,15,08,53,12.80
2012,09,15,08,54,12.90
2012,09,15,08,55,13.00
2012,09,15,08,56,13.00
2012,09,15,08,57,13.10
2012,09,15,08,58,13.10
2012,09,15,08,59,13.10
2012,09,15,09,00,13.20
2012,09,15,09,01,13.30
2012,09,15,09,02,13.40
2012,09,15,09,03,13.50
2012,09,15,09,04,13.50
2012,09,15,09,05,13.60
2012,09,15,09,06,13.70
2012,09,15,09,07,13.80
2012,09,15,09,08,13.90
2012,09,15,09,09,13.90
2012,09,15,09,10,14.00
2012,09,15,09,11,14.10
2012,09,15,09,12,14.20
2012,09,15,09,13,14.30
2012,09,15,09,14,14.40
2012,09,15,09,15,14.50
2012,09,15,09,16,14.60
2012,09,15,09,17,14.70
2012,09,15,09,18,14.80
2012,09,15,09,19,14.80
2012,09,15,09,20,14.80
2012,09,15,09,21,14.80
2012,09,15,09,22,14.90
2012,09,15,09,23,15.00
2012,09,15,09,24,15.10
2012,09,15,09,25,15.20
2012,09,15,09,26,15.20
2012,09,15,09,27,15.30
2012,09,15,09,28,15.30
2012,09,15,09,29,15.30
2012,09,15,09,30,15.30
2012,09,15,09,31,15.40
2012,09,15,09,32,15.40
2012,09,15,09,33,15.40
2012,09,15,09,34,15.50
2012,09,15,09,35,15.60
2012,09,15,09,36,15.70
2012,09,15,09,37,15.80
2012,09,15,09,38,15.90
2012,09,15,09,39,15.90
2012,09,15,09,40,16.10
2012,09,15,09,41,16.10
2012,09,15,09,42,16.10
2012,09,15,09,43,16.20
2012,09,15,09,44,16.30
2012,09,15,09,45,16.40
2012,09,15,09,46,16.40
2012,09,15,09,47,16.50
2012,09,15,09,48,16.60
2012,09,15,09,49,16.70
2012,09,15,09,50,16.80
2012,09,15,09,51,16.90
2012,09,15,09,52,17.00
2012,09,15,09,53,17.10
2012,09,15,09,54,17.20
2012,09,15,09,55,17.30
2012,09,15,09,56,17.30
2012,09,15,09,57,17.30
2012,09,15,09,58,17.30
2012,09,15,09,59,17.30
2012,09,15,10,00,17.30
2012,09,15,10,01,17.30
2012,09,15,10,02,17.20
2012,09,15,10,03,17.10
2012,09,15,10,04,17.00
2012,09,15,10,05,17.00
2012,09,15,10,06,17.00
2012,09,15,10,07,16.90
2012,09,15,10,08,16.90
2012,09,15,10,09,16.80
2012,09,15,10,10,16.80
2012,09,15,10,11,16.80
2012,09,15,10,12,16.90
2012,09,15,10,13,16.90
2012,09,15,10,14,16.90
2012,09,15,10,15,16.80
2012,09,15,10,16,16.90
2012,09,15,10,17,16.90
2012,09,15,10,18,16.90
2012,09,15,10,19,16.90
2012,09,15,10,20,17.00
2012,09,15,10,21,17.10
2012,09,15,10,22,17.10
2012,09,15,10,23,17.30
2012,09,15,10,24,17.30
2012,09,15,10,25,17.30
2012,09,15,10,26,17.40
2012,09,15,10,27,17.40
2012,09,15,10,28,17.40
2012,09,15,10,29,17.30
2012,09,15,10,30,17.30
2012,09,15,10,31,17.40
2012,09,15,10,32,17.40
2012,09,15,10,33,17.50
2012,09,15,10,34,17.50
2012,09,15,10,35,17.50
2012,09,15,10,36,17.50
2012,09,15,10,37,17.50
2012,09,15,10,38,17.50
2012,09,15,10,39,17.40
2012,09,15,10,40,17.40
2012,09,15,10,41,17.40
2012,09,15,10,42,17.40
2012,09,15,10,43,17.40
2012,09,15,10,44,17.50
2012,09,15,10,45,17.50
2012,09,15,10,46,17.50
2012,09,15,10,47,17.50
2012,09,15,10,48,17.50
2012,09,15,10,49,17.50
2012,09,15,10,50,17.50
2012,09,15,10,51,17.50
2012,09,15,10,52,17.60
2012,09,15,10,53,17.60
2012,09,15,10,54,17.60
2012,09,15,10,55,17.60
2012,09,15,10,56,17.60
2012,09,15,10,57,17.70
2012,09,15,10,58,17.70
2012,09,15,10,59,17.60
2012,09,15,11,00,17.60
2012,09,15,11,01,17.60
2012,09,15,11,02,17.50
2012,09,15,11,03,17.50
2012,09,15,11,04,17.50
2012,09,15,11,05,17.50
2012,09,15,11,06,17.50
2012,09,15,11,07,17.40
2012,09,15,11,08,17.50
2012,09,15,11,09,17.50
2012,09,15,11,10,17.50
2012,09,15,11,11,17.60
2012,09,15,11,12,17.70
2012,09,15,11,13,17.80
2012,09,15,11,14,17.80
2012,09,15,11,15,17.90
2012,09,15,11,16,17.90
2012,09,15,11,17,18.00
2012,09,15,11,18,18.00
2012,09,15,11,19,17.90
2012,09,15,11,20,17.90
2012,09,15,11,21,18.00
2012,09,15,11,22,17.90
2012,09,15,11,23,18.00
2012,09,15,11,24,18.10
2012,09,15,11,25,18.10
2012,09,15,11,26,18.10
2012,09,15,11,27,18.10
2012,09,15,11,28,18.10
2012,09,15,11,29,18.10
2012,09,15,11,30,18.20
2012,09,15,11,31,18.20
2012,09,15,11,32,18.30
2012,09,15,11,33,18.30
2012,09,15,11,34,18.30
2012,09,15,11,35,18.30
2012,09,15,11,36,18.20
2012,09,15,11,37,18.20
2012,09,15,11,38,18.20
2012,09,15,11,39,18.20
2012,09,15,11,40,18.30
2012,09,15,11,41,18.30
2012,09,15,11,42,18.40
2012,09,15,11,43,18.40
2012,09,15,11,44,18.50
2012,09,15,11,45,18.50
2012,09,15,11,46,18.50
2012,09,15,11,47,18.50
2012,09,15,11,48,18.40
2012,09,15,11,49,18.40
2012,09,15,11,50,18.50
2012,09,15,11,51,18.50
2012,09,15,11,52,18.60
2012,09,15,11,53,18.70
2012,09,15,11,54,18.80
2012,09,15,11,55,18.90
2012,09,15,11,56,18.90
2012,09,15,11,57,18.90
2012,09,15,11,58,18.90
2012,09,15,11,59,19.00
2012,09,15,12,00,19.10
2012,09,15,12,01,19.00
2012,09,15,12,02,18.90
2012,09,15,12,03,18.80
2012,09,15,12,04,18.80
2012,09,15,12,05,18.80
2012,09,15,12,06,18.90
2012,09,15,12,07,18.90
2012,09,15,12,08,18.90
2012,09,15,12,09,19.00
2012,09,15,12,10,19.10
2012,09,15,12,11,19.10
2012,09,15,12,12,19.10
2012,09,15,12,13,19.10
2012,09,15,12,14,19.10
2012,09,15,12,15,19.10
2012,09,15,12,16,19.10
2012,09,15,12,17,19.20
2012,09,15,12,18,19.20
2012,09,15,12,19,19.30
2012,09,15,12,20,19.40
2012,09,15,12,21,19.40
2012,09,15,12,22,19.40
2012,09,15,12,23,19.30
2012,09,15,12,24,19.30
2012,09,15,12,25,19.30
2012,09,15,12,26,19.30
2012,09,15,12,27,19.30
2012,09,15,12,28,19.30
2012,09,15,12,29,19.30
2012,09,15,12,30,19.30
2012,09,15,12,31,19.40
2012,09,15,12,32,19.40
2012,09,15,12,33,19.30
2012,09,15,12,34,19.30
2012,09,15,12,35,19.20
2012,09,15,12,36,19.20
2012,09,15,12,37,19.20
2012,09,15,12,38,19.20
2012,09,15,12,39,19.30
2012,09,15,12,40,19.30
2012,09,15,12,41,19.40
2012,09,15,12,42,19.50
2012,09,15,12,43,19.50
2012,09,15,12,44,19.60
2012,09,15,12,45,19.70
2012,09,15,12,46,19.70
2012,09,15,12,47,19.70
2012,09,15,12,48,19.70
2012,09,15,12,49,19.70
2012,09,15,12,50,19.70
2012,09,15,12,51,19.70
2012,09,15,12,52,19.80
2012,09,15,12,53,19.80
2012,09,15,12,54,19.80
2012,09,15,12,55,19.80
2012,09,15,12,56,19.90
2012,09,15,12,57,19.80
2012,09,15,12,58,19.80
2012,09,15,12,59,19.80
2012,09,15,13,00,19.70
2012,09,15,13,01,19.60
2012,09,15,13,02,19.60
2012,09,15,13,03,19.70
2012,09,15,13,04,19.80
2012,09,15,13,05,19.90
2012,09,15,13,06,19.90
2012,09,15,13,07,20.00
2012,09,15,13,08,20.10
2012,09,15,13,09,20.20
2012,09,15,13,10,20.20
2012,09,15,13,11,20.20
2012,09,15,13,12,20.20
2012,09,15,13,13,20.30
2012,09,15,13,14,20.30
2012,09,15,13,15,20.20
2012,09,15,13,16,20.30
2012,09,15,13,17,20.40
2012,09,15,13,18,20.50
2012,09,15,13,19,20.40
2012,09,15,13,20,20.30
2012,09,15,13,21,20.30
2012,09,15,13,22,20.20
2012,09,15,13,23,20.10
2012,09,15,13,24,20.00
2012,09,15,13,25,19.90
2012,09,15,13,26,20.00
2012,09,15,13,27,20.00
2012,09,15,13,28,19.90
2012,09,15,13,29,19.90
2012,09,15,13,30,19.90
2012,09,15,13,31,19.90
2012,09,15,13,32,20.00
2012,09,15,13,33,20.00
2012,09,15,13,34,19.90
2012,09,15,13,35,19.90
2012,09,15,13,36,19.90
2012,09,15,13,37,19.90
2012,09,15,13,38,20.10
2012,09,15,13,39,20.10
2012,09,15,13,40,20.20
2012,09,15,13,41,20.20
2012,09,15,13,42,20.20
2012,09,15,13,43,20.20
2012,09,15,13,44,20.10
2012,09,15,13,45,20.10
2012,09,15,13,46,20.10
2012,09,15,13,47,20.20
2012,09,15,13,48,20.20
2012,09,15,13,49,20.20
2012,09,15,13,50,20.10
2012,09,15,13,51,20.20
2012,09,15,13,52,20.20
2012,09,15,13,53,20.20
2012,09,15,13,54,20.20
2012,09,15,13,55,20.30
2012,09,15,13,56,20.20
2012,09,15,13,57,20.20
2012,09,15,13,58,20.20
2012,09,15,13,59,20.20
2012,09,15,14,00,20.20
2012,09,15,14,01,20.10
2012,09,15,14,02,20.10
2012,09,15,14,03,20.10
2012,09,15,14,04,20.20
2012,09,15,14,05,20.20
2012,09,15,14,06,20.30
2012,09,15,14,07,20.40
2012,09,15,14,08,20.50
2012,09,15,14,09,20.60
2012,09,15,14,10,20.70
2012,09,15,14,11,20.70
2012,09,15,14,12,20.80
2012,09,15,14,13,20.90
2012,09,15,14,14,20.80
2012,09,15,14,15,20.80
2012,09,15,14,16,20.70
2012,09,15,14,17,20.70
2012,09,15,14,18,20.80
2012,09,15,14,19,20.90
2012,09,15,14,20,20.80
2012,09,15,14,21,20.80
2012,09,15,14,22,20.80
2012,09,15,14,23,20.90
2012,09,15,14,24,20.90
2012,09,15,14,25,20.90
2012,09,15,14,26,21.00
2012,09,15,14,27,21.00
2012,09,15,14,28,21.00
2012,09,15,14,29,21.00
2012,09,15,14,30,20.90
2012,09,15,14,31,20.90
2012,09,15,14,32,20.90
2012,09,15,14,33,20.90
2012,09,15,14,34,20.90
2012,09,15,14,35,20.90
2012,09,15,14,36,21.00
2012,09,15,14,37,21.30
2012,09,15,14,38,21.50
2012,09,15,14,39,21.60
2012,09,15,14,40,21.80
2012,09,15,14,41,21.90
2012,09,15,14,42,21.90
2012,09,15,14,43,22.00
2012,09,15,14,44,22.00
2012,09,15,14,45,22.10
2012,09,15,14,46,22.00
2012,09,15,14,47,21.80
2012,09,15,14,48,21.70
2012,09,15,14,49,21.70
2012,09,15,14,50,21.90
2012,09,15,14,51,21.90
2012,09,15,14,52,21.70
2012,09,15,14,53,21.60
2012,09,15,14,54,21.60
2012,09,15,14,55,21.60
2012,09,15,14,56,21.70
2012,09,15,14,57,21.90
2012,09,15,14,58,22.00
2012,09,15,14,59,22.00
2012,09,15,15,00,22.10
2012,09,15,15,01,22.20
2012,09,15,15,02,22.20
2012,09,15,15,03,22.20
2012,09,15,15,04,22.20
2012,09,15,15,05,22.10
2012,09,15,15,06,22.10
2012,09,15,15,07,22.10
2012,09,15,15,08,22.10
2012,09,15,15,09,22.20
2012,09,15,15,10,22.10
2012,09,15,15,11,22.00
2012,09,15,15,12,22.00
2012,09,15,15,13,21.90
2012,09,15,15,14,21.80
2012,09,15,15,15,21.80
2012,09,15,15,16,21.80
2012,09,15,15,17,21.80
2012,09,15,15,18,21.70
2012,09,15,15,19,21.60
2012,09,15,15,20,21.60
2012,09,15,15,21,21.60
2012,09,15,15,22,21.50
2012,09,15,15,23,21.40
2012,09,15,15,24,21.50
2012,09,15,15,25,21.60
2012,09,15,15,26,21.70
2012,09,15,15,27,21.90
2012,09,15,15,28,22.00
2012,09,15,15,29,22.00
2012,09,15,15,30,22.10
2012,09,15,15,31,22.20
2012,09,15,15,32,22.30
2012,09,15,15,33,22.40
2012,09,15,15,34,22.40
2012,09,15,15,35,22.60
2012,09,15,15,36,22.60
2012,09,15,15,37,22.70
2012,09,15,15,38,22.70
2012,09,15,15,39,22.60
2012,09,15,15,40,22.60
2012,09,15,15,41,22.60
2012,09,15,15,42,22.50
2012,09,15,15,43,22.50
2012,09,15,15,44,22.50
2012,09,15,15,45,22.50
2012,09,15,15,46,22.60
2012,09,15,15,47,22.50
2012,09,15,15,48,22.50
2012,09,15,15,49,22.50
2012,09,15,15,50,22.40
2012,09,15,15,51,22.40
2012,09,15,15,52,22.20
2012,09,15,15,53,22.20
2012,09,15,15,54,22.10
2012,09,15,15,55,22.10
2012,09,15,15,56,22.20
2012,09,15,15,57,22.20
2012,09,15,15,58,22.20
2012,09,15,15,59,22.30
2012,09,15,16,00,22.20
2012,09,15,16,01,22.30
2012,09,15,16,02,22.30
2012,09,15,16,03,22.30
2012,09,15,16,04,22.30
2012,09,15,16,05,22.40
2012,09,15,16,06,22.30
2012,09,15,16,07,22.30
2012,09,15,16,08,22.30
2012,09,15,16,09,22.30
2012,09,15,16,10,22.30
2012,09,15,16,11,22.30
2012,09,15,16,12,22.30
2012,09,15,16,13,22.30
2012,09,15,16,14,22.30
2012,09,15,16,15,22.20
2012,09,15,16,16,22.10
2012,09,15,16,17,22.00
2012,09,15,16,18,22.00
2012,09,15,16,19,21.90
2012,09,15,16,20,21.90
2012,09,15,16,21,21.90
2012,09,15,16,22,21.80
2012,09,15,16,23,21.70
2012,09,15,16,24,21.70
2012,09,15,16,25,21.70
2012,09,15,16,26,21.70
2012,09,15,16,27,21.80
2012,09,15,16,28,21.80
2012,09,15,16,29,21.80
2012,09,15,16,30,21.90
2012,09,15,16,31,21.90
2012,09,15,16,32,21.90
2012,09,15,16,33,21.80
2012,09,15,16,34,21.60
2012,09,15,16,35,21.40
2012,09,15,16,36,21.30
2012,09,15,16,37,21.10
2012,09,15,16,38,21.00
2012,09,15,16,39,21.00
2012,09,15,16,40,20.90
2012,09,15,16,41,20.90
2012,09,15,16,42,20.80
2012,09,15,16,43,20.70
2012,09,15,16,44,20.70
2012,09,15,16,45,20.80
2012,09,15,16,46,20.90
2012,09,15,16,47,21.00
2012,09,15,16,48,21.10
2012,09,15,16,49,21.00
2012,09,15,16,50,21.00
2012,09,15,16,51,20.90
2012,09,15,16,52,20.90
2012,09,15,16,53,20.90
2012,09,15,16,54,20.90
2012,09,15,16,55,20.90
2012,09,15,16,56,21.00
2012,09,15,16,57,21.10
2012,09,15,16,58,21.20
2012,09,15,16,59,21.30
2012,09,15,17,00,21.30
2012,09,15,17,01,21.30
2012,09,15,17,02,21.30
2012,09,15,17,03,21.30
2012,09,15,17,04,21.30
2012,09,15,17,05,21.50
2012,09,15,17,06,21.60
2012,09,15,17,07,21.60
2012,09,15,17,08,21.60
2012,09,15,17,09,21.60
2012,09,15,17,10,21.60
2012,09,15,17,11,21.60
2012,09,15,17,12,21.50
2012,09,15,17,13,21.30
2012,09,15,17,14,21.30
2012,09,15,17,15,21.20
2012,09,15,17,16,21.30
2012,09,15,17,17,21.30
2012,09,15,17,18,21.30
2012,09,15,17,19,21.30
2012,09,15,17,20,21.20
2012,09,15,17,21,21.10
2012,09,15,17,22,21.10
2012,09,15,17,23,21.10